[[{"header":{"parameterUnit":"m.s-1","parameterCategory":1,"la1":30.2991,"la2":30.254,"lo1":-89.0895,"lo2":-89.0444,"dy":0.0017,"dx":0.0017,"nx":28,"ny":28,"refTime":"2024-08-26T03:00:00:Z","depth":0,"parameterNumber":2,"parameterNumberName":"U-component_of_WINDS"},"data":[0,0,0,0,0,0,0,0,0,0,0,0,0,0,0,0,0,0,0,0,0,0,0,0,0,0,0,0,0,0,0,0,0,0,0,0,0,0,0,0,0,0,0,0,0,0,0,0,0,0,0,0,0,0,0,0,0,0,-0.5175,-0.5175,0,-0.5182,-0.5182,-0.5182,-0.5128,-0.5126,-0.5124,-0.5123,-0.5132,-0.5134,-0.5135,0,0,0,0,0,0,0,0,0,0,0,0,0,-0.5116,-0.5118,-0.5175,-0.5175,-0.5175,-0.5182,-0.5182,-0.5182,-0.5128,-0.5126,-0.5124,-0.5122,-0.5132,-0.5133,-0.5135,0,0,0,0,0,0,0,0,0,0,0,0,0,-0.5134,-0.5118,-0.5175,-0.5149,-0.5147,-0.5182,-0.5182,-0.5182,-0.5128,-0.5126,-0.5124,-0.5121,-0.5131,-0.5133,-0.5136,-0.5197,0,0,-0.5143,-0.5144,0,0,0,0,0,0,0,0,-0.5133,-0.5137,-0.5153,-0.5151,-0.5148,-0.5151,-0.5164,-0.5187,-0.5129,-0.5135,-0.5123,-0.512,-0.5141,-0.5142,-0.5148,-0.5197,-0.5198,-0.5144,-0.5145,-0.5146,-0.5147,0,0,0,0,0,0,0,-0.5132,-0.5136,-0.5178,-0.5153,-0.515,-0.5137,-0.5137,-0.5169,-0.5151,-0.5135,-0.5131,-0.5132,-0.5139,-0.5146,-0.5148,-0.5198,-0.5144,-0.5146,-0.5147,-0.5148,-0.5297,-0.53,0,0,0,0,0,0,-0.5134,-0.5135,-0.5178,-0.5178,-0.5135,-0.514,-0.514,-0.5153,-0.515,-0.5148,-0.5134,-0.5129,-0.5143,-0.5145,-0.5148,-0.522,-0.5146,-0.5148,-0.515,-0.5295,-0.5298,-0.53,0,0,0,0,0,0,-0.5133,-0.5139,-0.5177,-0.5156,-0.5159,-0.5144,-0.5158,-0.5154,-0.5161,-0.515,-0.5146,-0.5145,-0.5141,-0.5145,-0.5185,-0.522,-0.515,-0.5152,-0.5292,-0.5296,-0.5299,-0.5364,0,0,0,0,0,0,-0.5132,-0.5138,-0.5162,-0.5156,-0.5161,-0.5214,-0.516,-0.5156,-0.5166,-0.516,-0.5159,-0.5157,-0.514,-0.5182,-0.5188,-0.5222,-0.5154,-0.5289,-0.5294,-0.5298,-0.5359,-0.537,-0.5379,0,0,0,0,0,-0.513,-0.518,-0.5163,-0.5168,-0.5189,-0.5216,-0.5219,-0.5198,-0.5169,-0.5192,-0.5184,-0.5157,-0.5215,-0.5186,-0.5192,-0.5228,-0.5286,-0.5292,-0.5298,-0.5355,-0.5368,-0.5379,0,0,0,0,0,0,-0.5191,-0.5179,-0.516,-0.521,-0.5214,-0.5207,-0.5236,-0.5212,-0.5226,-0.522,-0.5193,-0.5194,-0.5239,-0.5237,-0.5206,-0.5287,-0.5245,-0.5253,-0.5287,-0.5299,-0.5309,-0.5309,-0.5156,0,0,0,0,0,-0.521,-0.5232,-0.5221,-0.5266,-0.5269,-0.5252,-0.5263,-0.5246,-0.525,-0.5252,-0.5247,-0.5252,-0.5271,-0.5285,-0.5302,-0.5358,-0.5357,-0.5385,-0.5395,-0.5403,-0.541,-0.544,-0.5452,-0.5319,-0.5319,-0.5318,0,0,-0.525,-0.5246,-0.5262,-0.5278,-0.5279,-0.5304,-0.5254,-0.5282,-0.5299,-0.5256,-0.5294,-0.529,-0.5294,-0.5343,-0.5364,-0.5343,-0.5447,-0.541,-0.5417,-0.542,-0.5447,-0.546,-0.5471,-0.5322,-0.5322,-0.5321,0,0,-0.5335,-0.5334,-0.5372,-0.5374,-0.5376,-0.5364,-0.5373,-0.5369,-0.5365,-0.5402,-0.537,-0.5391,-0.5425,-0.5429,-0.5435,-0.5521,-0.5496,-0.5527,-0.558,-0.5609,-0.5619,-0.5629,-0.566,-0.5671,-0.5533,-0.5534,-0.5534,0,-0.5385,-0.542,-0.5395,-0.5424,-0.5432,-0.5393,-0.5431,-0.5434,-0.5443,-0.5449,-0.5425,-0.5466,-0.5466,-0.5515,-0.5536,-0.5542,-0.5552,-0.5528,-0.562,-0.5629,-0.5637,-0.5667,-0.5678,-0.5537,-0.5537,-0.5537,-0.5536,0,-0.5481,-0.5506,-0.5536,-0.5544,-0.5555,-0.5589,-0.5569,-0.5583,-0.5565,-0.5556,-0.5594,-0.5592,-0.5608,-0.5618,-0.5601,-0.5665,-0.5652,-0.5624,-0.5582,-0.5654,-0.5681,-0.5692,-0.5543,-0.5542,-0.554,-0.5539,0,0,-0.5607,-0.5599,-0.5611,-0.5614,-0.5613,-0.5632,-0.5663,-0.5678,-0.5691,-0.5698,-0.5724,-0.5753,-0.5727,-0.5735,-0.5717,-0.5743,-0.5811,-0.5712,-0.5712,-0.5731,-0.5882,-0.5904,-0.5917,-0.5794,-0.5796,-0.5798,-0.5882,0,-0.5691,-0.5745,-0.5723,-0.5779,-0.5801,-0.5763,-0.579,-0.5793,-0.5785,-0.5803,-0.5794,-0.5815,-0.5779,-0.5783,-0.5806,-0.5798,-0.5841,-0.5791,-0.5819,-0.5821,-0.5821,-0.5931,-0.5954,-0.6034,-0.5892,-0.5894,-0.5895,0,-0.5797,-0.5807,-0.5865,-0.5859,-0.5868,-0.5893,-0.5905,-0.5922,-0.5924,-0.5916,-0.5924,-0.5901,-0.5932,-0.5888,-0.5931,-0.5898,-0.5907,-0.5905,-0.5908,-0.5911,-0.5864,-0.5938,-0.6059,-0.6071,-0.5912,-0.591,-0.5909,0,-0.5884,-0.5912,-0.595,-0.5954,-0.5948,-0.5967,-0.5965,-0.5965,-0.5975,-0.5985,-0.5991,-0.6005,-0.6013,-0.6024,-0.6005,-0.5975,-0.6051,-0.6006,-0.6046,-0.6046,-0.6065,-0.6064,-0.619,-0.6069,-0.6069,-0.6069,-0.6068,0,-0.5982,-0.6019,-0.599,-0.6013,-0.6054,-0.6027,-0.6068,-0.6063,-0.6062,-0.6085,-0.6052,-0.6074,-0.6047,-0.6066,-0.6051,-0.6089,-0.6092,-0.6087,-0.6083,-0.6091,-0.6092,-0.6099,-0.6093,-0.6072,-0.6071,-0.607,-0.607,0,-0.6087,-0.6069,-0.6108,-0.6098,-0.6097,-0.6127,-0.612,-0.6141,-0.613,-0.6158,-0.6164,-0.6146,-0.6167,-0.6148,-0.6169,-0.6159,-0.6209,-0.6197,-0.6209,-0.6206,-0.6247,-0.6244,-0.6382,-0.6399,-0.6267,-0.6268,-0.6269,0,-0.6151,-0.6179,-0.6172,-0.6184,-0.6184,-0.6204,-0.6214,-0.6188,-0.62,-0.6204,-0.6225,-0.6243,-0.6256,-0.629,-0.628,-0.6295,-0.6283,-0.6331,-0.6286,-0.6292,-0.6285,-0.6285,-0.6287,-0.6341,-0.6342,-0.6343,-0.6344,0,-0.6267,-0.6256,-0.6271,-0.6283,-0.6295,-0.6303,-0.6309,-0.6321,-0.6295,-0.6309,-0.633,-0.634,-0.6359,-0.6378,-0.6389,-0.6388,-0.6362,-0.6358,-0.6368,-0.6378,-0.6384,-0.6382,-0.6235,-0.6356,-0.6355,-0.6354,-0.6353,-0.6353,-0.6354,-0.6377,-0.6375,-0.6393,-0.6394,-0.64,-0.642,-0.6411,-0.6427,-0.6441,-0.6424,-0.6449,-0.645,-0.6462,-0.6464,-0.6483,-0.6464,-0.6478,-0.6482,-0.6487,-0.6493,-0.6379,-0.6485,-0.6485,-0.6484,-0.6484,-0.6484,0,-0.6469,-0.6466,-0.6482,-0.6491,-0.6505,-0.6478,-0.6482,-0.6496,-0.6518,-0.652,-0.6533,-0.6556,-0.6574,-0.6564,-0.6578,-0.6596,-0.6585,-0.6601,-0.66,-0.66,-0.6509,-0.6499,-0.661,-0.661,-0.661,-0.661,-0.661,-0.661,-0.6531,-0.6568,-0.6557,-0.6594,-0.659,-0.6614,-0.6619,-0.6624,-0.6626,-0.6653,-0.6667,-0.666,-0.6657,-0.6671,-0.6686,-0.6682,-0.669,-0.6711,-0.6703,-0.6619,-0.6607,-0.6595,-0.6586,-0.6712,-0.6712,-0.6793,-0.6793,-0.6794]},{"header":{"parameterUnit":"m.s-1","parameterCategory":1,"la1":30.2991,"la2":30.254,"lo1":-89.0895,"lo2":-89.0444,"dy":0.0017,"dx":0.0017,"nx":28,"ny":28,"refTime":"2024-08-26T03:00:00:Z","depth":0,"parameterNumber":3,"parameterNumberName":"V-component_of_WINDS"},"data":[0,0,0,0,0,0,0,0,0,0,0,0,0,0,0,0,0,0,0,0,0,0,0,0,0,0,0,0,0,0,0,0,0,0,0,0,0,0,0,0,0,0,0,0,0,0,0,0,0,0,0,0,0,0,0,0,0,0,-1.9661,-1.9661,0,-1.9745,-1.9746,-1.9747,-1.9776,-1.9776,-1.9775,-1.9775,-1.986,-1.9863,-1.9865,0,0,0,0,0,0,0,0,0,0,0,0,0,-1.9525,-1.9527,-1.966,-1.9662,-1.9663,-1.9745,-1.9746,-1.9747,-1.9776,-1.9776,-1.9775,-1.9775,-1.986,-1.9863,-1.9866,0,0,0,0,0,0,0,0,0,0,0,0,0,-1.9594,-1.9528,-1.966,-1.9687,-1.969,-1.9744,-1.9746,-1.9747,-1.9776,-1.9776,-1.9775,-1.9775,-1.9859,-1.9862,-1.9866,-1.9899,0,0,-1.9878,-1.988,0,0,0,0,0,0,0,0,-1.959,-1.9599,-1.9682,-1.9685,-1.9689,-1.9749,-1.9729,-1.9798,-1.9776,-1.9744,-1.9775,-1.9775,-1.9824,-1.983,-1.9847,-1.9903,-1.9907,-1.9878,-1.9881,-1.9882,-1.9883,0,0,0,0,0,0,0,-1.9585,-1.9595,-1.9694,-1.9683,-1.9688,-1.9695,-1.9704,-1.9742,-1.9785,-1.9746,-1.9749,-1.9758,-1.9826,-1.9843,-1.9849,-1.9908,-1.9878,-1.9882,-1.9884,-1.9885,-1.9996,-1.9996,0,0,0,0,0,0,-1.9576,-1.9591,-1.9691,-1.9696,-1.9637,-1.9698,-1.9708,-1.973,-1.9785,-1.9793,-1.9759,-1.9759,-1.9837,-1.9845,-1.9853,-1.9895,-1.9882,-1.9886,-1.9888,-1.9995,-1.9996,-1.9997,0,0,0,0,0,0,-1.9573,-1.9584,-1.9688,-1.9644,-1.9658,-1.97,-1.9725,-1.9732,-1.975,-1.9794,-1.9802,-1.9769,-1.9837,-1.9847,-1.9888,-1.9898,-1.9887,-1.9891,-1.9995,-1.9996,-1.9996,-1.998,0,0,0,0,0,0,-1.9569,-1.9583,-1.9596,-1.9644,-1.966,-1.9721,-1.9726,-1.9734,-1.9757,-1.9759,-1.9806,-1.9813,-1.9837,-1.9882,-1.9891,-1.9903,-1.9894,-1.9994,-1.9995,-1.9996,-1.998,-1.998,-1.998,0,0,0,0,0,-1.9564,-1.9588,-1.9597,-1.9609,-1.9678,-1.9722,-1.9731,-1.9758,-1.9758,-1.9771,-1.9799,-1.9812,-1.9896,-1.9886,-1.9897,-1.991,-1.9993,-1.9995,-1.9996,-1.9979,-1.998,-1.998,0,0,0,0,0,0,-1.954,-1.9595,-1.9605,-1.9646,-1.9679,-1.9727,-1.9744,-1.9758,-1.9792,-1.9792,-1.9825,-1.9835,-1.9873,-1.9896,-1.9883,-1.9945,-1.9945,-1.9949,-1.9929,-1.993,-1.993,-1.9923,-1.9897,0,0,0,0,0,-1.9539,-1.9571,-1.9617,-1.9649,-1.9665,-1.9702,-1.9722,-1.974,-1.9776,-1.979,-1.9821,-1.9855,-1.9889,-1.9911,-1.9945,-1.9983,-1.9994,-1.9998,-1.9999,-1.9999,-2.0001,-2.0023,-2.0026,-2.0001,-2.0001,-2.0001,0,0,-1.9538,-1.9572,-1.959,-1.9645,-1.9672,-1.9704,-1.9713,-1.9746,-1.977,-1.9795,-1.9835,-1.9859,-1.9899,-1.9939,-1.9958,-1.9959,-2.0011,-2.0001,-2.0,-2.0003,-2.0025,-2.0027,-2.0029,-2.0002,-2.0002,-2.0002,0,0,-1.9552,-1.9582,-1.9611,-1.9639,-1.9681,-1.9706,-1.9713,-1.9759,-1.9776,-1.9817,-1.9836,-1.9865,-1.9923,-1.995,-1.9972,-1.9997,-2.001,-2.0008,-2.001,-2.0031,-2.0033,-2.0035,-2.0043,-2.0046,-2.001,-2.001,-2.001,0,-1.9546,-1.9595,-1.9624,-1.9656,-1.968,-1.9704,-1.9734,-1.976,-1.981,-1.9826,-1.9827,-1.99,-1.9929,-1.9975,-1.9981,-1.9998,-2.0007,-2.0002,-2.003,-2.0032,-2.0034,-2.0043,-2.0046,-2.001,-2.001,-2.001,-2.001,0,-1.9584,-1.9618,-1.9636,-1.9685,-1.9711,-1.9741,-1.9776,-1.9798,-1.9814,-1.9839,-1.988,-1.9915,-1.9957,-1.9969,-1.9985,-2.0018,-2.0017,-2.0024,-2.0024,-2.0036,-2.0044,-2.0048,-2.0009,-2.0009,-2.0009,-2.0009,0,0,-1.9585,-1.965,-1.9656,-1.9679,-1.9727,-1.9754,-1.9786,-1.9827,-1.9845,-1.988,-1.9907,-1.9956,-1.9962,-1.9987,-2.0006,-2.0025,-2.0043,-2.0029,-2.0031,-2.003,-2.0081,-2.0075,-2.0078,-2.0052,-2.0053,-2.0053,-2.0077,0,-1.9605,-1.9663,-1.9691,-1.9737,-1.9768,-1.9792,-1.982,-1.9853,-1.9877,-1.9907,-1.9933,-1.9967,-1.9973,-1.9988,-2.0008,-2.0036,-2.0053,-2.0035,-2.0077,-2.0078,-2.0066,-2.0083,-2.0077,-2.0098,-2.0081,-2.0081,-2.0082,0,-1.9636,-1.9671,-1.972,-1.9765,-1.9779,-1.9804,-1.9844,-1.9872,-1.991,-1.9926,-1.9954,-1.9973,-2.0007,-2.0006,-2.0054,-2.0041,-2.006,-2.0077,-2.0078,-2.0083,-2.008,-2.0087,-2.0105,-2.0108,-2.0088,-2.0087,-2.0087,0,-1.9631,-1.969,-1.9727,-1.9746,-1.98,-1.9816,-1.9839,-1.9877,-1.99,-1.9934,-1.9949,-1.9988,-2.0008,-2.0038,-2.0067,-2.0063,-2.0112,-2.0113,-2.0126,-2.0125,-2.0134,-2.0133,-2.0155,-2.0147,-2.0147,-2.0147,-2.0147,0,-1.965,-1.9679,-1.9726,-1.9748,-1.9781,-1.9813,-1.9845,-1.987,-1.9903,-1.9931,-1.9955,-1.998,-2.0017,-2.0048,-2.0071,-2.0107,-2.0116,-2.013,-2.0136,-2.0128,-2.0126,-2.014,-2.0139,-2.0148,-2.0148,-2.0148,-2.0148,0,-1.965,-1.9682,-1.9724,-1.9772,-1.9784,-1.9807,-1.9847,-1.987,-1.9896,-1.9931,-1.9941,-1.998,-2.0017,-2.005,-2.0098,-2.0114,-2.0151,-2.0158,-2.0138,-2.0141,-2.0152,-2.015,-2.0183,-2.0189,-2.0178,-2.0178,-2.0178,0,-1.966,-1.9683,-1.9733,-1.9753,-1.9776,-1.9809,-1.9832,-1.9865,-1.9888,-1.9933,-1.9951,-1.9989,-2.0022,-2.008,-2.0113,-2.0151,-2.0159,-2.0168,-2.0164,-2.0155,-2.0158,-2.0156,-2.0158,-2.0167,-2.0167,-2.0167,-2.0167,0,-1.9674,-1.9688,-1.9721,-1.976,-1.9788,-1.982,-1.9852,-1.9868,-1.9906,-1.9931,-1.997,-1.9995,-2.0045,-2.0083,-2.0124,-2.0148,-2.0164,-2.0168,-2.0173,-2.0165,-2.0152,-2.0158,-2.0137,-2.0167,-2.0167,-2.0167,-2.0167,-2.0167,-1.9678,-1.97,-1.9738,-1.9775,-1.9803,-1.9833,-1.9857,-1.9885,-1.9918,-1.9961,-1.9978,-2.0017,-2.0055,-2.0112,-2.0136,-2.0167,-2.0169,-2.0176,-2.0178,-2.0179,-2.0177,-2.0147,-2.0174,-2.0174,-2.0174,-2.0174,-2.0174,0,-1.9693,-1.9719,-1.9752,-1.9797,-1.9826,-1.9839,-1.9875,-1.9898,-1.9932,-1.9966,-1.9998,-2.0042,-2.0079,-2.0115,-2.0154,-2.0172,-2.018,-2.0181,-2.018,-2.0185,-2.0173,-2.0165,-2.0174,-2.0174,-2.0174,-2.0174,-2.0174,-2.0174,-1.9704,-1.9741,-1.976,-1.9811,-1.9838,-1.9876,-1.9896,-1.9924,-1.9951,-1.9999,-2.003,-2.0054,-2.0089,-2.0131,-2.0165,-2.0175,-2.0188,-2.0187,-2.0199,-2.0186,-2.0186,-2.0186,-2.0178,-2.019,-2.019,-2.0208,-2.0208,-2.0208]}]]